DW5225 Weather Reports


Display with metric or nautical units.
time (UTC)temp
F
wind
direction
speed
MPH
gust
MPH
rain 1hr
in
rain 24hr
in
rain mn
in
humidity
%
barometer
mb
20260903233050 62 0 0.0 0.0 0.00 0.00 0.00 66 1026.9
20260903231547 62 0 0.0 0.0 0.00 0.00 0.00 67 1027.0
20260903230051 62 0 0.0 0.0 0.00 0.00 0.00 68 1027.1
20260903224549 62 0 0.0 0.0 0.00 0.00 0.00 67 1027.2
20260903223045 62 0 0.0 0.0 0.00 0.00 0.00 67 1027.0
20260903221553 62 0 0.0 0.0 0.00 0.00 0.00 66 1026.9
20260903220053 63 0 0.0 0.0 0.00 0.00 0.00 65 1026.8
20260903214551 63 0 0.0 0.0 0.00 0.00 0.00 65 1026.6
20260903213045 63 0 0.0 0.0 0.00 0.00 0.00 64 1026.8
20260903211551 64 0 0.0 0.0 0.00 0.00 0.00 65 1026.7
20260903210105 63 0 0.0 0.0 0.00 0.00 0.00 64 1026.7
20260903204559 63 0 0.0 0.0 0.00 0.00 0.00 65 1026.6
20260903203051 64 0 0.0 0.0 0.00 0.00 0.00 65 1026.3
20260903201551 64 0 0.0 0.0 0.00 0.00 0.00 64 1026.0
20260903200052 64 0 0.0 0.0 0.00 0.00 0.00 63 1026.2
20260903194543 65 0 0.0 0.0 0.00 0.00 0.00 64 1026.0
20260903193053 65 0 0.0 0.0 0.00 0.00 0.00 63 1026.0
20260903191548 66 0 0.0 0.0 0.00 0.00 0.00 61 1025.9
20260903190047 66 0 0.0 0.0 0.00 0.00 0.00 62 1025.8
20260903184552 67 0 0.0 0.0 0.00 0.00 0.00 62 1025.7
20260903183050 67 0 0.0 0.0 0.00 0.00 0.00 62 1025.6
20260903181547 68 0 0.0 0.0 0.00 0.00 0.00 60 1025.5
20260903180050 69 0 0.0 0.0 0.00 0.00 0.00 61 1025.3
20260903174552 70 0 0.0 0.0 0.00 0.00 0.00 60 1025.3
20260903173050 70 0 0.0 0.0 0.00 0.00 0.00 59 1025.1
20260903171553 71 0 0.0 0.0 0.00 0.00 0.00 58 1025.0
20260903170051 71 0 0.0 0.0 0.00 0.00 0.00 57 1024.9
20260903164550 72 0 0.0 1.0 0.00 0.00 0.00 56 1024.8
20260903163047 73 0 0.0 7.0 0.00 0.00 0.00 54 1024.7
20260903161543 74 0 0.0 2.0 0.00 0.00 0.00 51 1024.7
20260903154548 76 0 0.0 6.0 0.00 0.00 0.00 42 1024.5
20260903153055 76 0 3.0 9.0 0.00 0.00 0.00 45 1024.5
20260903151548 75 328 4.0 11.0 0.00 0.00 0.00 46 1024.5
20260903150058 77 0 0.0 8.0 0.00 0.00 0.00 45 1024.3
20260903144553 77 318 2.0 8.0 0.00 0.00 0.00 45 1024.4
20260903143048 77 283 1.0 6.0 0.00 0.00 0.00 42 1024.1
20260903141551 77 343 0.0 9.0 0.00 0.00 0.00 43 1024.1
20260903140053 78 339 2.0 7.0 0.00 0.00 0.00 39 1024.0
20260903134543 78 0 0.0 1.0 0.00 0.00 0.00 38 1024.1
20260903133100 79 0 1.0 8.0 0.00 0.00 0.00 35 1024.0
20260903131550 77 0 0.0 7.0 0.00 0.00 0.00 35 1024.4
20260903130048 77 0 1.0 8.0 0.00 0.00 0.00 38 1024.6
20260903124552 76 275 2.0 7.0 0.00 0.00 0.00 39 1024.6
20260903123051 75 0 0.0 7.0 0.00 0.00 0.00 38 1024.8
20260903121549 76 0 0.0 8.0 0.00 0.00 0.00 39 1024.7
20260903120101 75 267 1.0 7.0 0.00 0.00 0.00 39 1024.8
20260903114551 75 0 2.0 8.0 0.00 0.00 0.00 38 1024.8
20260903113050 75 304 2.0 8.0 0.00 0.00 0.00 41 1024.8
20260903111548 74 0 0.0 5.0 0.00 0.00 0.00 41 1025.0
20260903110052 73 0 0.0 5.0 0.00 0.00 0.00 42 1025.0
20260903104551 73 0 0.0 6.0 0.00 0.00 0.00 46 1025.3
20260903103052 73 0 0.0 1.0 0.00 0.00 0.00 44 1025.5
20260903101554 71 0 0.0 6.0 0.00 0.00 0.00 47 1025.7
20260903100050 70 282 0.0 6.0 0.00 0.00 0.00 52 1026.0
20260903094551 69 281 0.0 6.0 0.00 0.00 0.00 59 1026.2
20260903093116 68 301 0.0 4.0 0.00 0.00 0.00 59 1025.9
20260903091549 67 0 0.0 4.0 0.00 0.00 0.00 60 1026.2
20260903090048 66 0 0.0 1.0 0.00 0.00 0.00 64 1026.1
20260903084552 65 0 0.0 0.0 0.00 0.00 0.00 65 1026.4
20260903083050 64 0 0.0 1.0 0.00 0.00 0.00 65 1026.4
20260903081548 64 0 0.0 0.0 0.00 0.00 0.00 64 1026.7
20260903080057 63 0 0.0 0.0 0.00 0.00 0.00 64 1026.9
20260903074607 63 0 0.0 0.0 0.00 0.00 0.00 68 1027.0
20260903073059 62 0 0.0 0.0 0.00 0.00 0.00 65 1026.8
20260903071548 61 0 0.0 0.0 0.00 0.00 0.00 68 1026.9
20260903070051 59 0 0.0 0.0 0.00 0.00 0.00 72 1026.8
20260903064549 58 0 0.0 0.0 0.00 0.00 0.00 74 1026.7
20260903063046 56 0 0.0 0.0 0.00 0.00 0.00 75 1026.5
20260903061546 56 0 0.0 0.0 0.00 0.00 0.00 76 1026.6
20260903060051 55 0 0.0 0.0 0.00 0.00 0.00 75 1026.5
20260903054550 55 0 0.0 0.0 0.00 0.00 0.00 76 1026.6
20260903053052 55 0 0.0 1.0 0.00 0.00 0.00 76 1026.5
20260903051550 55 0 0.0 0.0 0.00 0.00 0.00 77 1026.3
20260903050049 54 0 0.0 0.0 0.00 0.00 0.00 77 1026.2
20260903044548 55 0 0.0 0.0 0.00 0.00 0.00 77 1026.0
20260903043050 55 0 0.0 0.0 0.00 0.00 0.00 77 1026.0
20260903041548 55 0 0.0 1.0 0.00 0.00 0.00 76 1026.0
20260903040046 56 0 0.0 0.0 0.00 0.00 0.00 75 1026.0
20260903034549 56 0 0.0 0.0 0.00 0.00 0.00 75 1026.0
20260903033049 56 0 0.0 0.0 0.00 0.00 0.00 75 1026.0
20260903031612 56 0 0.0 0.0 0.00 0.00 0.00 75 1026.0
20260903030055 56 0 0.0 0.0 0.00 0.00 0.00 76 1026.0
20260903024553 57 0 0.0 0.0 0.00 0.00 0.00 77 1026.2
20260903023043 57 0 0.0 0.0 0.00 0.00 0.00 77 1026.1
20260903021552 57 0 0.0 0.0 0.00 0.00 0.00 76 1026.1
20260903020049 58 0 0.0 0.0 0.00 0.00 0.00 75 1026.0
20260903014552 58 0 0.0 0.0 0.00 0.00 0.00 75 1026.0
20260903013049 58 0 0.0 0.0 0.00 0.00 0.00 73 1026.0
20260903011554 59 0 0.0 0.0 0.00 0.00 0.00 74 1025.9
20260903010050 59 0 0.0 0.0 0.00 0.00 0.00 73 1025.9
20260903004551 59 0 0.0 0.0 0.00 0.00 0.00 72 1025.7
20260903003055 58 0 0.0 0.0 0.00 0.00 0.00 74 1025.7
20260903001544 59 0 0.0 0.0 0.00 0.00 0.00 73 1025.7
20260903000049 59 0 0.0 0.0 0.00 0.00 0.00 73 1025.7
20260902234559 59 0 0.0 0.0 0.00 0.00 0.00 74 1025.9